Regional Weather Roundup
Issued by NWS Kansas City/Pleasant Hill, MO

Home | Current Version | Previous Version | Graphics & Text | Print | Product List | Glossary Off
Versions: 1 2 3 4 5 6 7 8 9 10 11 12 13 14 15 16 17 18 19 20 21 22 23 24 25 26 27 28 29 30 31 32 33 34 35 36 37 38 39 40 41 42 43 44 45 46 47 48 49 50

000
ASUS43 KEAX 280204
RWREAX

WEATHER ROUNDUP FOR EASTERN KANSAS AND NORTHWEST MISSOURI
NATIONAL WEATHER SERVICE KANSAS CITY/PLEASANT HILL MO
800 PM CST TUE JAN 27 2015

KSZ040-057-103>105-MOZ028-029-037-043-280300-
...KANSAS CITY METROPOLITAN AREA...

CITY           SKY/WX    TMP DP  RH WIND       PRES   REMARKS
K.C. INTL      CLEAR     45  32  60 SE14      30.09S
K.C. DOWNTOWN  CLEAR     48  30  49 E7        30.10S
LEES SUMMIT    CLEAR     44  31  60 E8        30.11S
OLATHE - IXD   CLEAR     45  32  60 E8        30.09S
OLATHE - OJC   CLEAR     46  31  55 E7        30.09S
LAWRENCE       CLEAR     45  31  58 E10       30.07S

$$

MOZ001>008-011>017-020>025-030>033-038>040-044>046-053-054-280300-
...NORTHERN AND CENTRAL MISSOURI...

CITY           SKY/WX    TMP DP  RH WIND       PRES   REMARKS
ST. JOSEPH     CLEAR     44  31  60 SE8       30.09S
MOSBY          CLEAR     43  32  65 E6        30.11F
WARRENSBURG    CLEAR     41  32  70 E3        30.13R
WHITEMAN AFB   CLEAR     41  31  68 SE6       30.12S
CLINTON        MIX PCPN  43  32  65 E6        30.12S
SEDALIA        CLEAR     41  31  67 E6        30.14F
WARSAW         NOT AVBL
MARSHALL       CLEAR     45  34  65 E5        30.15S
CHILLICOTHE      N/A     40  32  73 E5        30.15R
MOBERLY        CLEAR     36  28  75 E9        30.17S WCI  29
KIRKSVILLE     CLEAR     33  31  92 E8        30.18R WCI  26

$$

MOZ041-047>049-056>058-063>065-088>090-097-280300-
...EASTERN AND SOUTHERN MISSOURI...

CITY           SKY/WX    TMP DP  RH WIND       PRES   REMARKS
ST. LOUIS INTL CLEAR     33  27  78 E8        30.24R WCI  26
SPIRIT OF STL  FAIR      33  28  81 E8        30.22R WCI  26
COLUMBIA       CLEAR     39  32  76 E8        30.16S WCI  33
JEFFERSON CITY CLEAR     40  31  70 E6        30.17S
MEXICO         CLEAR     37  34  87 E9        30.19R WCI  31
HANNIBAL       CLEAR     32  27  80 E5        30.21S WCI  27
ROLLA          CLEAR     39  29  67 E7        30.15S WCI  34
LEBANON        CLEAR     45  28  53 SE6       30.14S
OSAGE BEACH    CLEAR     45  28  53 E6        30.15S
SPRINGFIELD    CLEAR     40  27  59 E7        30.11F
BRANSON        CLEAR     46  30  53 SE5       30.13S
NEVADA         CLEAR     43  28  56 E6        30.11S
JOPLIN         CLEAR     50  27  40 E7        30.09S
WEST PLAINS    CLEAR     43  27  53 E3        30.16S

$$

IAZ060-094-KSZ022-034>040-054-083-096-NEZ052-066-093-280300-
...KANSAS...SOUTHEAST NEBRASKA AND IOWA...

CITY           SKY/WX    TMP DP  RH WIND       PRES   REMARKS
TOPEKA         CLEAR     48  32  53 E12       30.06R
MANHATTAN      CLEAR     52  35  52 E5        30.00S
EMPORIA        CLEAR     48  34  58 SE9       30.01F
CHANUTE        CLEAR     48  33  56 E9        30.06S
WICHITA        CLEAR     59  36  42 S13       29.98F
OMAHA          CLEAR     44  30  57 SE12      30.05S
LINCOLN        CLEAR     47  31  53 SE13      30.02S
FALLS CITY     CLEAR     42  29  59 SE10      30.05F
LAMONI         CLEAR     38  29  70 SE6       30.11S WCI  33
DES MOINES     CLEAR     34  28  79 SE9       30.14F WCI  27

$$



USA.gov is the U.S. government's official web portal to all federal, state and local government web resources and services.